Atlas Copco Coolers Catalog (Air Cooling) Part Numbers Full List

1613 8364 00 Atlas Copco HEAT EXCHANGER OILAIR China Supplier

If you are looking for 1614958800 Oil Cooler or 1614958900 Oil Cooler, 1614959000 After cooler or any other genuine coolers for your Atlas Copco equipment, here is the Atlas Copco Air Cooler catalog with part numbers list. Chengdu Pudding Mechatronic Co.CPMC air compressors service team keep updating informative info for international buyers who want import quality compressors and related spare parts from China. In this post you will get most air coolers part numbers. 

Importance of Atlas air compressor air-cooled cooler Maintenance:

Atlas air compressor air-cooled cooler means that the cooling medium of this cooler is air, which means that it uses a fan to blow air, and the wind exchanges heat with the cooler to take away the heat.

The heat dissipation effect of Atlas air compressor air-cooled cooler directly affects the operating temperature of the air compressor. The plate-fin structure is easy to accumulate dust, so the maintenance of the cooler needs to be blown from top to bottom with dry compressed air of more than 0.4Mpa per shift. The cooler of the diesel-driven screw is upright. When maintaining, you need to use dry compressed air above 0.4Mpa to blow from the outside to the inside. After blowing, clean the dust and particles in the air duct to prevent it from being blown by the fan again. Blowing into the cooler causes blockage and causes the machine to become hot. If the machine is used in a harsh environment and the surface of the cooler is full of greasy dirt, it must be cleaned with a carbon cleaner.

Atlas Copco Air Compressors Air Coolers Catalog with Part Numbers Full list

The Ultimate Catalog for Atlas Copco Air Compressors Aftercooler & Kits 

Part Numbers ATLAS COPCO Coolers Part Numbers
1091631933 Atlas Copco Air Cooler 1091-6319-33
1092000169 Atlas Copco Air Cooler 1092-0001-69
1092000400 Atlas Copco Air Cooler 1092-0004-00
1092000484 Atlas Copco Air Cooler 1092-0004-84
1092000500 Atlas Copco Air Cooler 1092-0005-00
1092000783 Atlas Copco Air Cooler 1092-0007-83
1092002966 Atlas Copco Air Cooler 1092-0029-66
1092002973 Atlas Copco Air Cooler 1092-0029-73
1092002974 Atlas Copco Air Cooler 1092-0029-74
1092005069 Atlas Copco Air Cooler 1092-0050-69
1092005673 Atlas Copco Air Cooler 1092-0056-73
1092005674 Atlas Copco Air Cooler 1092-0056-74
1092005675 Atlas Copco Air Cooler 1092-0056-75
1092005676 Atlas Copco Air Cooler 1092-0056-76
1092005677 Atlas Copco Air Cooler 1092-0056-77
1092005678 Atlas Copco Air Cooler 1092-0056-78
1092006191 Atlas Copco Air Cooler 1092-0061-91
1092006192 Atlas Copco Air Cooler 1092-0061-92
1092013100 Atlas Copco Air Cooler 1092-0131-00
1092034837 Atlas Copco Air Cooler 1092-0348-37
1092037208 Atlas Copco Air Cooler 1092-0372-08
1092037344 Atlas Copco Air Cooler 1092-0373-44
1092040100 Atlas Copco Air Cooler 1092-0401-00
1092042325 Atlas Copco Air Cooler 1092-0423-25
1092050408 Atlas Copco Air Cooler 1092-0504-08
1092067800 Atlas Copco Air Cooler 1092-0678-00
1092068000 Atlas Copco Air Cooler 1092-0680-00
1092170031 Atlas Copco Air Cooler 1092-1700-31
1092170034 Atlas Copco Air Cooler 1092-1700-34
1092170037 Atlas Copco Air Cooler 1092-1700-37
1092200285 Atlas Copco Air Cooler 1092-2002-85
1092200286 Atlas Copco Air Cooler 1092-2002-86
1092309900 Atlas Copco Air Cooler 1092-3099-00
1092316000 Atlas Copco Air Cooler 1092-3160-00
1096001370 Atlas Copco Air Cooler 1096-0013-70
1202604500 Atlas Copco Air Cooler 1202-6045-00
1202766208 Atlas Copco Air Cooler 1202-7662-08
1202772200 Atlas Copco Air Cooler 1202-7722-00
1202804092 Atlas Copco Air Cooler 1202-8040-92
1202821408 Atlas Copco Air Cooler 1202-8214-08
1202915808 Atlas Copco Air Cooler 1202-9158-08
1202973500 Atlas Copco Air Cooler 1202-9735-00
1202973900 Atlas Copco Air Cooler 1202-9739-00
1202984988 Atlas Copco Air Cooler 1202-9849-88
1202985088 Atlas Copco Air Cooler 1202-9850-88
1202985288 Atlas Copco Air Cooler 1202-9852-88
1202992008 Atlas Copco Air Cooler 1202-9920-08
1320779420 Atlas Copco Air Cooler 1320-7794-20
1420081234 Atlas Copco Air Cooler 1420-0812-34
1420081337 Atlas Copco Air Cooler 1420-0813-37
1420081890 Atlas Copco Air Cooler 1420-0818-90
1420081891 Atlas Copco Air Cooler 1420-0818-91
1503286200 Atlas Copco Air Cooler 1503-2862-00
1503286300 Atlas Copco Air Cooler 1503-2863-00
1503288400 Atlas Copco Air Cooler 1503-2884-00
1503312600 Atlas Copco Air Cooler 1503-3126-00
1503313400 Atlas Copco Air Cooler 1503-3134-00
1604052801 Atlas Copco Air Cooler 1604-0528-01
1604110900 Atlas Copco Air Cooler 1604-1109-00
1604249501 Atlas Copco Air Cooler 1604-2495-01
1604249902 Atlas Copco Air Cooler 1604-2499-02
1604267602 Atlas Copco Air Cooler 1604-2676-02
1604268001 Atlas Copco Air Cooler 1604-2680-01
1604396802 Atlas Copco Air Cooler 1604-3968-02
1604396902 Atlas Copco Air Cooler 1604-3969-02
1604474700 Atlas Copco Air Cooler 1604-4747-00
1604929300 Atlas Copco Air Cooler 1604-9293-00
1604929400 Atlas Copco Air Cooler 1604-9294-00
1606135400 Atlas Copco Air Cooler 1606-1354-00
1606381200 Atlas Copco Air Cooler 1606-3812-00
1606381500 Atlas Copco Air Cooler 1606-3815-00
1610174500 Atlas Copco Air Cooler 1610-1745-00
1610288800 Atlas Copco Air Cooler 1610-2888-00
1613421100 Atlas Copco Air Cooler 1613-4211-00
1613562500 Atlas Copco Air Cooler 1613-5625-00
1613679200 Atlas Copco Air Cooler 1613-6792-00
1613688800 Atlas Copco Air Cooler 1613-6888-00
1613688900 Atlas Copco Air Cooler 1613-6889-00
1613702288 Atlas Copco Air Cooler 1613-7022-88
1613737300 Atlas Copco Air Cooler 1613-7373-00
1613782202 Atlas Copco Air Cooler 1613-7822-02
1613782203 Atlas Copco Air Cooler 1613-7822-03
1613830300 Atlas Copco Air Cooler 1613-8303-00
1613830400 Atlas Copco Air Cooler 1613-8304-00
1613836400 Atlas Copco Air Cooler 1613-8364-00
1613836402 Atlas Copco Air Cooler 1613-8364-02
1613836403 Atlas Copco Air Cooler 1613-8364-03
1613836500 Atlas Copco Air Cooler 1613-8365-00
1613836502 Atlas Copco Air Cooler 1613-8365-02
1613836600 Atlas Copco Air Cooler 1613-8366-00
1613836602 Atlas Copco Air Cooler 1613-8366-02
1613836603 Atlas Copco Air Cooler 1613-8366-03
1613874488 Atlas Copco Air Cooler 1613-8744-88
1613875086 Atlas Copco Air Cooler 1613-8750-86
1613875088 Atlas Copco Air Cooler 1613-8750-88
1613950700 Atlas Copco Air Cooler 1613-9507-00
1613950800 Atlas Copco Air Cooler 1613-9508-00
1613950900 Atlas Copco Air Cooler 1613-9509-00
1613951000 Atlas Copco Air Cooler 1613-9510-00
1613951100 Atlas Copco Air Cooler 1613-9511-00
1613951200 Atlas Copco Air Cooler 1613-9512-00
1613990900 Atlas Copco Air Cooler 1613-9909-00
1613991000 Atlas Copco Air Cooler 1613-9910-00
1614643600 Atlas Copco Air Cooler 1614-6436-00
1614643700 Atlas Copco Air Cooler 1614-6437-00
1614675600 Atlas Copco Air Cooler 1614-6756-00
1614677400 Atlas Copco Air Cooler 1614-6774-00
1614697800 Atlas Copco Air Cooler 1614-6978-00
1614698000 Atlas Copco Air Cooler 1614-6980-00
1614705300 Atlas Copco Air Cooler 1614-7053-00
1614762200 Atlas Copco Air Cooler 1614-7622-00
1614781708 Atlas Copco Air Cooler 1614-7817-08
1614781800 Atlas Copco Air Cooler 1614-7818-00
1614781803 Atlas Copco Air Cooler 1614-7818-03
1614782102 Atlas Copco Air Cooler 1614-7821-02
1614782303 Atlas Copco Air Cooler 1614-7823-03
1614782700 Atlas Copco Air Cooler 1614-7827-00
1614826300 Atlas Copco Air Cooler 1614-8263-00
1614859500 Atlas Copco Air Cooler 1614-8595-00
1614859600 Atlas Copco Air Cooler 1614-8596-00
1614862400 Atlas Copco Air Cooler 1614-8624-00
1614862480 Atlas Copco Air Cooler 1614-8624-80
1614866008 Atlas Copco Air Cooler 1614-8660-08
1614866108 Atlas Copco Air Cooler 1614-8661-08
1614866208 Atlas Copco Air Cooler 1614-8662-08
1614866308 Atlas Copco Air Cooler 1614-8663-08
1614866408 Atlas Copco Air Cooler 1614-8664-08
1614866508 Atlas Copco Air Cooler 1614-8665-08
1614866608 Atlas Copco Air Cooler 1614-8666-08
1614866708 Atlas Copco Air Cooler 1614-8667-08
1614866808 Atlas Copco Air Cooler 1614-8668-08
1614886900 Atlas Copco Air Cooler 1614-8869-00
1614896900 Atlas Copco Air Cooler 1614-8969-00
1614918900 Atlas Copco Air Cooler 1614-9189-00
1614920100 Atlas Copco Air Cooler 1614-9201-00
1614935800 Atlas Copco Air Cooler 1614-9358-00
1614954300 Atlas Copco Air Cooler 1614-9543-00
1614958000 Atlas Copco Air Cooler 1614-9580-00
1614958400 Atlas Copco Air Cooler 1614-9584-00
1614958800 Atlas Copco Air Cooler 1614-9588-00
1614958900 Atlas Copco Air Cooler 1614-9589-00
1614959000 Atlas Copco Air Cooler 1614-9590-00
1615438990 Atlas Copco Air Cooler 1615-4389-90
1615557390 Atlas Copco Air Cooler 1615-5573-90
1615663200 Atlas Copco Air Cooler 1615-6632-00
1615675400 Atlas Copco Air Cooler 1615-6754-00
1615675601 Atlas Copco Air Cooler 1615-6756-01
1616502500 Atlas Copco Air Cooler 1616-5025-00
1617506900 Atlas Copco Air Cooler 1617-5069-00
1617513300 Atlas Copco Air Cooler 1617-5133-00
1617526950 Atlas Copco Air Cooler 1617-5269-50
1617533051 Atlas Copco Air Cooler 1617-5330-51
1617599800 Atlas Copco Air Cooler 1617-5998-00
1619754900 Atlas Copco Air Cooler 1619-7549-00
1621044100 Atlas Copco Air Cooler 1621-0441-00
1621047982 Atlas Copco Air Cooler 1621-0479-82
1621054402 Atlas Copco Air Cooler 1621-0544-02
1621073100 Atlas Copco Air Cooler 1621-0731-00
1621073200 Atlas Copco Air Cooler 1621-0732-00
1621075101 Atlas Copco Air Cooler 1621-0751-01
1621075102 Atlas Copco Air Cooler 1621-0751-02
1621106700 Atlas Copco Air Cooler 1621-1067-00
1621106800 Atlas Copco Air Cooler 1621-1068-00
1621106900 Atlas Copco Air Cooler 1621-1069-00
1621149100 Atlas Copco Air Cooler 1621-1491-00
1621203508 Atlas Copco Air Cooler 1621-2035-08
1621205008 Atlas Copco Air Cooler 1621-2050-08
1621208308 Atlas Copco Air Cooler 1621-2083-08
1621209408 Atlas Copco Air Cooler 1621-2094-08
1621216980 Atlas Copco Air Cooler 1621-2169-80
1621258200 Atlas Copco Air Cooler 1621-2582-00
1621267708 Atlas Copco Air Cooler 1621-2677-08
1621279300 Atlas Copco Air Cooler 1621-2793-00
1621279600 Atlas Copco Air Cooler 1621-2796-00
1621279800 Atlas Copco Air Cooler 1621-2798-00
1621300202 Atlas Copco Air Cooler 1621-3002-02
1621300208 Atlas Copco Air Cooler 1621-3002-08
1621315148 Atlas Copco Air Cooler 1621-3151-48
1621315582 Atlas Copco Air Cooler 1621-3155-82
1621324811 Atlas Copco Air Cooler 1621-3248-11
1621324812 Atlas Copco Air Cooler 1621-3248-12
1621324813 Atlas Copco Air Cooler 1621-3248-13
1621337212 Atlas Copco Air Cooler 1621-3372-12
1621337280 Atlas Copco Air Cooler 1621-3372-80
1621401404 Atlas Copco Air Cooler 1621-4014-04
1621401405 Atlas Copco Air Cooler 1621-4014-05
1621401406 Atlas Copco Air Cooler 1621-4014-06
1621411000 Atlas Copco Air Cooler 1621-4110-00
1621411100 Atlas Copco Air Cooler 1621-4111-00
1621411200 Atlas Copco Air Cooler 1621-4112-00
1621415300 Atlas Copco Air Cooler 1621-4153-00
1621482200 Atlas Copco Air Cooler 1621-4822-00
1621485008 Atlas Copco Air Cooler 1621-4850-08
1621490108 Atlas Copco Air Cooler 1621-4901-08
1621490618 Atlas Copco Air Cooler 1621-4906-18
1621495313 Atlas Copco Air Cooler 1621-4953-13
1621536300 Atlas Copco Air Cooler 1621-5363-00
1621536400 Atlas Copco Air Cooler 1621-5364-00
1621536500 Atlas Copco Air Cooler 1621-5365-00
1621537508 Atlas Copco Air Cooler 1621-5375-08
1621600101 Atlas Copco Air Cooler 1621-6001-01
1621600102 Atlas Copco Air Cooler 1621-6001-02
1621600103 Atlas Copco Air Cooler 1621-6001-03
1621848700 Atlas Copco Air Cooler 1621-8487-00
1621850028 Atlas Copco Air Cooler 1621-8500-28
1621850328 Atlas Copco Air Cooler 1621-8503-28
1621850382 Atlas Copco Air Cooler 1621-8503-82
1621850385 Atlas Copco Air Cooler 1621-8503-85
1621851482 Atlas Copco Air Cooler 1621-8514-82
1621853700 Atlas Copco Air Cooler 1621-8537-00
1621853701 Atlas Copco Air Cooler 1621-8537-01
1621869583 Atlas Copco Air Cooler 1621-8695-83
1621869593 Atlas Copco Air Cooler 1621-8695-93
1621869682 Atlas Copco Air Cooler 1621-8696-82
1621869780 Atlas Copco Air Cooler 1621-8697-80
1621904500 Atlas Copco Air Cooler 1621-9045-00
1621912908 Atlas Copco Air Cooler 1621-9129-08
1621948100 Atlas Copco Air Cooler 1621-9481-00
1621948800 Atlas Copco Air Cooler 1621-9488-00
1621992402 Atlas Copco Air Cooler 1621-9924-02
1621992502 Atlas Copco Air Cooler 1621-9925-02
1621992508 Atlas Copco Air Cooler 1621-9925-08
1621992802 Atlas Copco Air Cooler 1621-9928-02
1621992808 Atlas Copco Air Cooler 1621-9928-08
1621992902 Atlas Copco Air Cooler 1621-9929-02
1621992908 Atlas Copco Air Cooler 1621-9929-08
1621993108 Atlas Copco Air Cooler 1621-9931-08
1622016300 Atlas Copco Air Cooler 1622-0163-00
1622018200 Atlas Copco Air Cooler 1622-0182-00
1622024001 Atlas Copco Air Cooler 1622-0240-01
1622024003 Atlas Copco Air Cooler 1622-0240-03
1622059400 Atlas Copco Air Cooler 1622-0594-00
1622059402 Atlas Copco Air Cooler 1622-0594-02
1622059407 Atlas Copco Air Cooler 1622-0594-07
1622059409 Atlas Copco Air Cooler 1622-0594-09
1622059410 Atlas Copco Air Cooler 1622-0594-10
1622065800 Atlas Copco Air Cooler 1622-0658-00
1622094100 Atlas Copco Air Cooler 1622-0941-00
1622094200 Atlas Copco Air Cooler 1622-0942-00
1622094300 Atlas Copco Air Cooler 1622-0943-00
1622094400 Atlas Copco Air Cooler 1622-0944-00
1622119100 Atlas Copco Air Cooler 1622-1191-00
1622131400 Atlas Copco Air Cooler 1622-1314-00
1622131680 Atlas Copco Air Cooler 1622-1316-80
1622144200 Atlas Copco Air Cooler 1622-1442-00
1622153000 Atlas Copco Air Cooler 1622-1530-00
1622160500 Atlas Copco Air Cooler 1622-1605-00
1622161100 Atlas Copco Air Cooler 1622-1611-00
1622204020 Atlas Copco Air Cooler 1622-2040-20
1622218800 Atlas Copco Air Cooler 1622-2188-00
1622318700 Atlas Copco Air Cooler 1622-3187-00
1622318800 Atlas Copco Air Cooler 1622-3188-00
1622318900 Atlas Copco Air Cooler 1622-3189-00
1622319000 Atlas Copco Air Cooler 1622-3190-00
1622319100 Atlas Copco Air Cooler 1622-3191-00
1622330300 Atlas Copco Air Cooler 1622-3303-00
1622376600 Atlas Copco Air Cooler 1622-3766-00
1622376710 Atlas Copco Air Cooler 1622-3767-10
1622376800 Atlas Copco Air Cooler 1622-3768-00
1622376910 Atlas Copco Air Cooler 1622-3769-10
1622377000 Atlas Copco Air Cooler 1622-3770-00
1622377110 Atlas Copco Air Cooler 1622-3771-10
1622392800 Atlas Copco Air Cooler 1622-3928-00
1622392900 Atlas Copco Air Cooler 1622-3929-00
1622393100 Atlas Copco Air Cooler 1622-3931-00
1622393200 Atlas Copco Air Cooler 1622-3932-00
1622465280 Atlas Copco Air Cooler 1622-4652-80
1622465380 Atlas Copco Air Cooler 1622-4653-80
1622493500 Atlas Copco Air Cooler 1622-4935-00
1622493900 Atlas Copco Air Cooler 1622-4939-00
1622499500 Atlas Copco Air Cooler 1622-4995-00
1622507580 Atlas Copco Air Cooler 1622-5075-80
1622507780 Atlas Copco Air Cooler 1622-5077-80
1622533000 Atlas Copco Air Cooler 1622-5330-00
1622602800 Atlas Copco Air Cooler 1622-6028-00
1622689700 Atlas Copco Air Cooler 1622-6897-00
1622689800 Atlas Copco Air Cooler 1622-6898-00
1622783001 Atlas Copco Air Cooler 1622-7830-01
1622815080 Atlas Copco Air Cooler 1622-8150-80
1622877600 Atlas Copco Air Cooler 1622-8776-00
1622877900 Atlas Copco Air Cooler 1622-8779-00
1623062708 Atlas Copco Air Cooler 1623-0627-08
1623063308 Atlas Copco Air Cooler 1623-0633-08
1623711700 Atlas Copco Air Cooler 1623-7117-00
1623711800 Atlas Copco Air Cooler 1623-7118-00
1623711900 Atlas Copco Air Cooler 1623-7119-00
1623712000 Atlas Copco Air Cooler 1623-7120-00
1623712100 Atlas Copco Air Cooler 1623-7121-00
1623712200 Atlas Copco Air Cooler 1623-7122-00
1625165925 Atlas Copco Air Cooler 1625-1659-25
1625165926 Atlas Copco Air Cooler 1625-1659-26
1625165970 Atlas Copco Air Cooler 1625-1659-70
1625165971 Atlas Copco Air Cooler 1625-1659-71
1625770800 Atlas Copco Air Cooler 1625-7708-00
1625770900 Atlas Copco Air Cooler 1625-7709-00
1625771000 Atlas Copco Air Cooler 1625-7710-00
1625774400 Atlas Copco Air Cooler 1625-7744-00
1626074202 Atlas Copco Air Cooler 1626-0742-02
1626080700 Atlas Copco Air Cooler 1626-0807-00
1626098200 Atlas Copco Air Cooler 1626-0982-00
1626106103 Atlas Copco Air Cooler 1626-1061-03
1626107101 Atlas Copco Air Cooler 1626-1071-01
1626140900 Atlas Copco Air Cooler 1626-1409-00
1626140901 Atlas Copco Air Cooler 1626-1409-01
1901003332 Atlas Copco Air Cooler 1901-0033-32
1901011943 Atlas Copco Air Cooler 1901-0119-43
1901012228 Atlas Copco Air Cooler 1901-0122-28
1901021582 Atlas Copco Air Cooler 1901-0215-82
1901055185 Atlas Copco Air Cooler 1901-0551-85
1901061480 Atlas Copco Air Cooler 1901-0614-80
2202815603 Atlas Copco Air Cooler 2202-8156-03
2202847101 Atlas Copco Air Cooler 2202-8471-01
2202854401 Atlas Copco Air Cooler 2202-8544-01
2205101100 Atlas Copco Air Cooler 2205-1011-00
2205101200 Atlas Copco Air Cooler 2205-1012-00
2205101300 Atlas Copco Air Cooler 2205-1013-00
2205110700 Atlas Copco Air Cooler 2205-1107-00
2205110800 Atlas Copco Air Cooler 2205-1108-00
2205117900 Atlas Copco Air Cooler 2205-1179-00
2205130200 Atlas Copco Air Cooler 2205-1302-00
2205132700 Atlas Copco Air Cooler 2205-1327-00
2205132800 Atlas Copco Air Cooler 2205-1328-00
2205153100 Atlas Copco Air Cooler 2205-1531-00
2205153200 Atlas Copco Air Cooler 2205-1532-00
2205153300 Atlas Copco Air Cooler 2205-1533-00
2205153400 Atlas Copco Air Cooler 2205-1534-00
2205175427 Atlas Copco Air Cooler 2205-1754-27
2205178440 Atlas Copco Air Cooler 2205-1784-40
2205260669 Atlas Copco Air Cooler 2205-2606-69
2205260670 Atlas Copco Air Cooler 2205-2606-70
2205260700 Atlas Copco Air Cooler 2205-2607-00
2205260701 Atlas Copco Air Cooler 2205-2607-01
2205260703 Atlas Copco Air Cooler 2205-2607-03
2205260704 Atlas Copco Air Cooler 2205-2607-04
2205262608 Atlas Copco Air Cooler 2205-2626-08
2205267602 Atlas Copco Air Cooler 2205-2676-02
2205267612 Atlas Copco Air Cooler 2205-2676-12
2205267614 Atlas Copco Air Cooler 2205-2676-14
2205267753 Atlas Copco Air Cooler 2205-2677-53
2205489124 Atlas Copco Air Cooler 2205-4891-24
2205489125 Atlas Copco Air Cooler 2205-4891-25
2235273000 Atlas Copco Air Cooler 2235-2730-00
2235522400 Atlas Copco Air Cooler 2235-5224-00
2235522500 Atlas Copco Air Cooler 2235-5225-00
2251808093 Atlas Copco Air Cooler 2251-8080-93
2251808193 Atlas Copco Air Cooler 2251-8081-93
2252689801 Atlas Copco Air Cooler 2252-6898-01
2252734701 Atlas Copco Air Cooler 2252-7347-01
2254074800 Atlas Copco Air Cooler 2254-0748-00
2255072806 Atlas Copco Air Cooler 2255-0728-06
2900068100 Atlas Copco Air Cooler 2900-0681-00
2901009800 Atlas Copco Air Cooler 2901-0098-00
2901091800 Atlas Copco Air Cooler 2901-0918-00
2901130012 Atlas Copco Air Cooler 2901-1300-12
2906097400 Atlas Copco Air Cooler 2906-0974-00
3003414168 Atlas Copco Air Cooler 3003-4141-68
3003414268 Atlas Copco Air Cooler 3003-4142-68
3003801868 Atlas Copco Air Cooler 3003-8018-68
3003801968 Atlas Copco Air Cooler 3003-8019-68
3003802268 Atlas Copco Air Cooler 3003-8022-68
3003803168 Atlas Copco Air Cooler 3003-8031-68
3003805768 Atlas Copco Air Cooler 3003-8057-68
3003805868 Atlas Copco Air Cooler 3003-8058-68
3003806068 Atlas Copco Air Cooler 3003-8060-68
3003806168 Atlas Copco Air Cooler 3003-8061-68
3003806368 Atlas Copco Air Cooler 3003-8063-68
3003806468 Atlas Copco Air Cooler 3003-8064-68
9771081087 Atlas Copco Air Cooler 9771-0810-87
9771082058 Atlas Copco Air Cooler 9771-0820-58
9771082059 Atlas Copco Air Cooler 9771-0820-59
9771093960 Atlas Copco Air Cooler 9771-0939-60
9825632308 Atlas Copco Air Cooler 9825-6323-08
1623047600 Atlas Copco Air Cooler 1623-0476-00
1623027600 Atlas Copco Air Cooler 1623-0276-00
1622877900 Atlas Copco Air Cooler 1622-8779-00
1622877600 Atlas Copco Air Cooler 1622-8776-00
1622873001 Atlas Copco Air Cooler 1622-8730-01
1622783005 Atlas Copco Air Cooler 1622-7830-05
1622783004 Atlas Copco Air Cooler 1622-7830-04
1622783003 Atlas Copco Air Cooler 1622-7830-03
1622783002 Atlas Copco Air Cooler 1622-7830-02
1622783001 Atlas Copco Air Cooler 1622-7830-01
1622783000 Atlas Copco Air Cooler 1622-7830-00
1622660300 Atlas Copco Air Cooler 1622-6603-00
1622594405 Atlas Copco Air Cooler 1622-5944-05
1622579600 Atlas Copco Air Cooler 1622-5796-00
1622579500 Atlas Copco Air Cooler 1622-5795-00
1622393400 Atlas Copco Air Cooler 1622-3934-00
1622393300 Atlas Copco Air Cooler 1622-3933-00
1622393200 Atlas Copco Air Cooler 1622-3932-00
1622393104 Atlas Copco Air Cooler 1622-3931-04
1622393103 Atlas Copco Air Cooler 1622-3931-03
1622393102 Atlas Copco Air Cooler 1622-3931-02
1622393101 Atlas Copco Air Cooler 1622-3931-01
1622393100 Atlas Copco Air Cooler 1622-3931-00
1622393000 Atlas Copco Air Cooler 1622-3930-00
1622392900 Atlas Copco Air Cooler 1622-3929-00
1622392800 Atlas Copco Air Cooler 1622-3928-00
1622392700 Atlas Copco Air Cooler 1622-3927-00
1622379701 Atlas Copco Air Cooler 1622-3797-01
1622377110 Atlas Copco Air Cooler 1622-3771-10
1622377000 Atlas Copco Air Cooler 1622-3770-00
1622376910 Atlas Copco Air Cooler 1622-3769-10
1622376900 Atlas Copco Air Cooler 1622-3769-00
1622376800 Atlas Copco Air Cooler 1622-3768-00
1622376710 Atlas Copco Air Cooler 1622-3767-10
1622376700 Atlas Copco Air Cooler 1622-3767-00
1622376600 Atlas Copco Air Cooler 1622-3766-00
1622345500 Atlas Copco Air Cooler 1622-3455-00
1622345400 Atlas Copco Air Cooler 1622-3454-00
1622345300 Atlas Copco Air Cooler 1622-3453-00
1622345200 Atlas Copco Air Cooler 1622-3452-00
1622345100 Atlas Copco Air Cooler 1622-3451-00
1622330300 Atlas Copco Air Cooler 1622-3303-00
1622319100 Atlas Copco Air Cooler 1622-3191-00
1622319000 Atlas Copco Air Cooler 1622-3190-00
1622318900 Atlas Copco Air Cooler 1622-3189-00
1622318800 Atlas Copco Air Cooler 1622-3188-00
1622318700 Atlas Copco Air Cooler 1622-3187-00
1622204020 Atlas Copco Air Cooler 1622-2040-20
1622107300 Atlas Copco Air Cooler 1622-1073-00
1622094500 Atlas Copco Air Cooler 1622-0945-00
1622094400 Atlas Copco Air Cooler 1622-0944-00
1622094300 Atlas Copco Air Cooler 1622-0943-00
1622094200 Atlas Copco Air Cooler 1622-0942-00
1622094100 Atlas Copco Air Cooler 1622-0941-00
1622094000 Atlas Copco Air Cooler 1622-0940-00
1622092700 Atlas Copco Air Cooler 1622-0927-00
1622059402 Atlas Copco Air Cooler 1622-0594-02
1622059401 Atlas Copco Air Cooler 1622-0594-01
1622024002 Atlas Copco Air Cooler 1622-0240-02
1622024001 Atlas Copco Air Cooler 1622-0240-01
1622010900 Atlas Copco Air Cooler 1622-0109-00
1622010800 Atlas Copco Air Cooler 1622-0108-00
1622010700 Atlas Copco Air Cooler 1622-0107-00
1622010600 Atlas Copco Air Cooler 1622-0106-00
1622010500 Atlas Copco Air Cooler 1622-0105-00
1621536500 Atlas Copco Air Cooler 1621-5365-00
1621536400 Atlas Copco Air Cooler 1621-5364-00
1621536300 Atlas Copco Air Cooler 1621-5363-00
1621411200 Atlas Copco Air Cooler 1621-4112-00
1621411100 Atlas Copco Air Cooler 1621-4111-00
1621411000 Atlas Copco Air Cooler 1621-4110-00
1621337213 Atlas Copco Air Cooler 1621-3372-13
1621106900 Atlas Copco Air Cooler 1621-1069-00
1621075100 Atlas Copco Air Cooler 1621-0751-00
1621044100 Atlas Copco Air Cooler 1621-0441-00
1620188900 Atlas Copco Air Cooler 1620-1889-00
1617879000 Atlas Copco Air Cooler 1617-8790-00
1617548500 Atlas Copco Air Cooler 1617-5485-00
1617548400 Atlas Copco Air Cooler 1617-5484-00
1617496100 Atlas Copco Air Cooler 1617-4961-00
1617494200 Atlas Copco Air Cooler 1617-4942-00
1617355700 Atlas Copco Air Cooler 1617-3557-00
1616918900 Atlas Copco Air Cooler 1616-9189-00
1615663200 Atlas Copco Air Cooler 1615-6632-00
1615375400 Atlas Copco Air Cooler 1615-3754-00
1614959000 Atlas Copco Air Cooler 1614-9590-00
1614958900 Atlas Copco Air Cooler 1614-9589-00
1614958800 Atlas Copco Air Cooler 1614-9588-00
1614936500 Atlas Copco Air Cooler 1614-9365-00
1614935800 Atlas Copco Air Cooler 1614-9358-00
1614920100 Atlas Copco Air Cooler 1614-9201-00
1614920000 Atlas Copco Air Cooler 1614-9200-00
1614918900 Atlas Copco Air Cooler 1614-9189-00
1614918800 Atlas Copco Air Cooler 1614-9188-00
1614896900 Atlas Copco Air Cooler 1614-8969-00
1614849600 Atlas Copco Air Cooler 1614-8496-00
1614836500 Atlas Copco Air Cooler 1614-8365-00
1614826400 Atlas Copco Air Cooler 1614-8264-00
1614826300 Atlas Copco Air Cooler 1614-8263-00
1614764500 Atlas Copco Air Cooler 1614-7645-00
1614762300 Atlas Copco Air Cooler 1614-7623-00
1614753200 Atlas Copco Air Cooler 1614-7532-00
1614752800 Atlas Copco Air Cooler 1614-7528-00
1614705900 Atlas Copco Air Cooler 1614-7059-00
1614705300 Atlas Copco Air Cooler 1614-7053-00
1614677500 Atlas Copco Air Cooler 1614-6775-00
1614667400 Atlas Copco Air Cooler 1614-6674-00
1614667300 Atlas Copco Air Cooler 1614-6673-00
1614643700 Atlas Copco Air Cooler 1614-6437-00
1614643600 Atlas Copco Air Cooler 1614-6436-00
1613951200 Atlas Copco Air Cooler 1613-9512-00
1613951100 Atlas Copco Air Cooler 1613-9511-00
1613950900 Atlas Copco Air Cooler 1613-9509-00
1613950800 Atlas Copco Air Cooler 1613-9508-00
1613950700 Atlas Copco Air Cooler 1613-9507-00
1613914600 Atlas Copco Air Cooler 1613-9146-00
1613867800 Atlas Copco Air Cooler 1613-8678-00
1613836600 Atlas Copco Air Cooler 1613-8366-00
1613836503 Atlas Copco Air Cooler 1613-8365-03
1613836502 Atlas Copco Air Cooler 1613-8365-02
1613836500 Atlas Copco Air Cooler 1613-8365-00
1613836403 Atlas Copco Air Cooler 1613-8364-03
1613836400 Atlas Copco Air Cooler 1613-8364-00
1613830400 Atlas Copco Air Cooler 1613-8304-00
1613830300 Atlas Copco Air Cooler 1613-8303-00
1613801300 Atlas Copco Air Cooler 1613-8013-00
1613801200 Atlas Copco Air Cooler 1613-8012-00
1613782200 Atlas Copco Air Cooler 1613-7822-00
1613751500 Atlas Copco Air Cooler 1613-7515-00
1604934103 Atlas Copco Air Cooler 1604-9341-03
1604934002 Atlas Copco Air Cooler 1604-9340-02
1604933902 Atlas Copco Air Cooler 1604-9339-02
1604396903 Atlas Copco Air Cooler 1604-3969-03
1604370201 Atlas Copco Air Cooler 1604-3702-01
1604335501 Atlas Copco Air Cooler 1604-3355-01
1604268001 Atlas Copco Air Cooler 1604-2680-01
1604267902 Atlas Copco Air Cooler 1604-2679-02
1604267602 Atlas Copco Air Cooler 1604-2676-02
1604259501 Atlas Copco Air Cooler 1604-2595-01
1604249901 Atlas Copco Air Cooler 1604-2499-01
1604052801 Atlas Copco Air Cooler 1604-0528-01
1310031070 Atlas Copco Air Cooler 1310-0310-70
1613951000 Atlas Copco Air Cooler 1613-9510-00

 

NOTE: This particular product number might have been replaced by a newer one. Please contact CPMC for the latest updates and availability or the latest catalog. Here below is the search tool with the part numbers and wish it can help you.

Chengdu Pudding Mechatronic Co.CPMC is a an air compressors and spare parts supplier focusing on export. You can expect better prices for top brands like Atlas Copco, Ingersoll Rand, Sullair, Quincy, CP, Fusheng, BLT and China reputable air compressors brand like Jaguar Air compressor, Kaishan, etc. Send your purchase list with part numbers to sales@aircompressorstrade.com for quotation, we will answer you with full solution.

3 thoughts on “Atlas Copco Coolers Catalog (Air Cooling) Part Numbers Full List

  1. Pyeong Ji,Han says:

    Quotation request

    Atlas Copco Oil Cooler 1623711900 1ea

    We would appriciate it if you could argently inform us of the available price and delivery date for the above products.
    Also, please tell us the ship’g cost to Ulsan, S/Korea.
    I look forward to your prompt reply.

  2. Pyeong Ji,Han says:

    견적의뢰
    아틀라스콥코 오일쿨러 1623711900 1대
    위 제품에 대한 공급 가능 가격과 납기 및 울산(대한민국)까지 운송비 견적을 보내주시면 감사하겠습니다.
    나는 당신의 신속한 답신을 기다립니다.

Leave a Reply

Your email address will not be published. Required fields are marked *

error: Content is protected !!
CPMC uses cookies to offer you a better browsing experience. By browsing this website, you agree to our use of cookies.